Zurück zum Katalog

RASCOM 1

AktivKommunikationGEO
NORAD 32387·PAYLOAD·🇨🇦 Canada

Gestartet Dec 21, 2007 von Guiana Space Centre

Loading…

TLE

AktuellSource: Space-Track

Epoche: Sep 14, 2026, 10:42 UTC

1 32387U 07063A   26257.44638455  .00000051  00000-0  00000-0 0  9996
2 32387  11.5694  40.8551 0010917 114.8357 237.6774  0.99061249 68359

Verfolge RASCOM 1 in Echtzeit mit AllMySat

Download on the App Store